Time,TemperatureF,DewpointF,PressureIn,WindDirection,WindDirectionDegrees,WindSpeedMPH,WindSpeedGustMPH,Humidity,HourlyPrecipIn,Conditions,Clouds,dailyrainin,SoftwareType,DateUTC
2013-08-14 00:01:00,62.8,42.3,29.83,North,-999,-999.0,-999.0,47,-99.99,,,-99.99,,2013-08-14 04:01:00,
2013-08-14 00:02:00,62.8,42.3,29.83,North,-999,-999.0,-999.0,47,-99.99,,,-99.99,,2013-08-14 04:02:00,
2013-08-14 00:03:00,62.8,42.3,29.83,North,-999,-999.0,-999.0,47,-99.99,,,-99.99,,2013-08-14 04:03:00,
2013-08-14 00:06:00,62.6,42.1,29.83,North,-999,-999.0,-999.0,47,-99.99,,,-99.99,,2013-08-14 04:06:00,
2013-08-14 00:09:00,62.6,42.1,29.83,North,-999,-999.0,-999.0,47,-99.99,,,-99.99,,2013-08-14 04:09:00,
2013-08-14 00:14:00,62.6,42.7,29.83,North,-999,-999.0,-999.0,48,-99.99,,,-99.99,,2013-08-14 04:14:00,
2013-08-14 00:19:00,62.4,42.5,29.83,North,-999,-999.0,-999.0,48,-99.99,,,-99.99,,2013-08-14 04:19:00,
2013-08-14 00:24:00,62.4,42.5,29.83,North,-999,-999.0,-999.0,48,-99.99,,,-99.99,,2013-08-14 04:24:00,
2013-08-14 00:30:00,62.4,42.5,29.83,North,-999,-999.0,-999.0,48,-99.99,,,-99.99,,2013-08-14 04:30:00,
2013-08-14 00:35:00,62.2,42.3,29.83,North,-999,-999.0,-999.0,48,-99.99,,,-99.99,,2013-08-14 04:35:00,
2013-08-14 00:40:00,62.2,42.3,29.83,North,-999,-999.0,-999.0,48,-99.99,,,-99.99,,2013-08-14 04:40:00,
2013-08-14 00:45:00,62.2,42.9,29.83,North,-999,-999.0,-999.0,49,-99.99,,,-99.99,,2013-08-14 04:45:00,
2013-08-14 00:51:00,62.1,42.7,29.83,North,-999,-999.0,-999.0,49,-99.99,,,-99.99,,2013-08-14 04:51:00,
2013-08-14 00:56:00,62.1,42.7,29.83,North,-999,-999.0,-999.0,49,-99.99,,,-99.99,,2013-08-14 04:56:00,
2013-08-14 01:01:00,61.9,42.5,29.83,North,-999,-999.0,-999.0,49,-99.99,,,-99.99,,2013-08-14 05:01:00,
2013-08-14 01:06:00,61.9,43.1,29.83,North,-999,-999.0,-999.0,50,-99.99,,,-99.99,,2013-08-14 05:06:00,
2013-08-14 01:11:00,61.7,42.9,29.83,North,-999,-999.0,-999.0,50,-99.99,,,-99.99,,2013-08-14 05:11:00,
2013-08-14 01:16:00,61.7,42.9,29.83,North,-999,-999.0,-999.0,50,-99.99,,,-99.99,,2013-08-14 05:16:00,
2013-08-14 01:22:00,61.5,42.7,29.83,North,-999,-999.0,-999.0,50,-99.99,,,-99.99,,2013-08-14 05:22:00,
2013-08-14 01:27:00,61.7,43.4,29.80,North,-999,-999.0,-999.0,51,-99.99,,,-99.99,,2013-08-14 05:27:00,
2013-08-14 01:33:00,61.5,43.2,29.80,North,-999,-999.0,-999.0,51,-99.99,,,-99.99,,2013-08-14 05:33:00,
2013-08-14 01:38:00,61.5,43.2,29.80,North,-999,-999.0,-999.0,51,-99.99,,,-99.99,,2013-08-14 05:38:00,
2013-08-14 01:43:00,61.3,43.1,29.83,North,-999,-999.0,-999.0,51,-99.99,,,-99.99,,2013-08-14 05:43:00,
2013-08-14 01:48:00,61.3,43.1,29.83,North,-999,-999.0,-999.0,51,-99.99,,,-99.99,,2013-08-14 05:48:00,
2013-08-14 01:53:00,61.3,43.1,29.83,North,-999,-999.0,-999.0,51,-99.99,,,-99.99,,2013-08-14 05:53:00,
2013-08-14 01:59:00,61.2,42.9,29.83,North,-999,-999.0,-999.0,51,-99.99,,,-99.99,,2013-08-14 05:59:00,
2013-08-14 02:04:00,61.0,42.7,29.83,North,-999,-999.0,-999.0,51,-99.99,,,-99.99,,2013-08-14 06:04:00,
2013-08-14 02:09:00,61.0,42.7,29.83,North,-999,-999.0,-999.0,51,-99.99,,,-99.99,,2013-08-14 06:09:00,
2013-08-14 02:14:00,61.0,42.7,29.83,North,-999,-999.0,-999.0,51,-99.99,,,-99.99,,2013-08-14 06:14:00,
2013-08-14 02:19:00,60.8,42.6,29.83,North,-999,-999.0,-999.0,51,-99.99,,,-99.99,,2013-08-14 06:19:00,
2013-08-14 02:25:00,60.8,42.6,29.83,North,-999,-999.0,-999.0,51,-99.99,,,-99.99,,2013-08-14 06:25:00,
2013-08-14 02:30:00,60.6,42.9,29.83,North,-999,-999.0,-999.0,52,-99.99,,,-99.99,,2013-08-14 06:30:00,
2013-08-14 02:35:00,60.6,42.9,29.83,North,-999,-999.0,-999.0,52,-99.99,,,-99.99,,2013-08-14 06:35:00,
2013-08-14 02:40:00,60.6,42.9,29.83,North,-999,-999.0,-999.0,52,-99.99,,,-99.99,,2013-08-14 06:40:00,
2013-08-14 02:45:00,60.4,42.8,29.83,North,-999,-999.0,-999.0,52,-99.99,,,-99.99,,2013-08-14 06:45:00,
2013-08-14 02:51:00,60.3,42.6,29.83,North,-999,-999.0,-999.0,52,-99.99,,,-99.99,,2013-08-14 06:51:00,
2013-08-14 02:56:00,60.1,42.9,29.83,North,-999,-999.0,-999.0,53,-99.99,,,-99.99,,2013-08-14 06:56:00,
2013-08-14 03:02:00,60.1,42.9,29.83,North,-999,-999.0,-999.0,53,-99.99,,,-99.99,,2013-08-14 07:02:00,
2013-08-14 03:08:00,59.9,42.8,29.83,North,-999,-999.0,-999.0,53,-99.99,,,-99.99,,2013-08-14 07:08:00,
2013-08-14 03:13:00,59.9,42.8,29.83,North,-999,-999.0,-999.0,53,-99.99,,,-99.99,,2013-08-14 07:13:00,
2013-08-14 03:18:00,59.9,43.2,29.83,North,-999,-999.0,-999.0,54,-99.99,,,-99.99,,2013-08-14 07:18:00,
2013-08-14 03:24:00,59.9,43.2,29.83,North,-999,-999.0,-999.0,54,-99.99,,,-99.99,,2013-08-14 07:24:00,
2013-08-14 03:29:00,59.7,43.5,29.83,North,-999,-999.0,-999.0,55,-99.99,,,-99.99,,2013-08-14 07:29:00,
2013-08-14 03:34:00,59.5,42.9,29.83,North,-999,-999.0,-999.0,54,-99.99,,,-99.99,,2013-08-14 07:34:00,
2013-08-14 03:39:00,59.5,43.4,29.83,North,-999,-999.0,-999.0,55,-99.99,,,-99.99,,2013-08-14 07:39:00,
2013-08-14 03:45:00,59.4,43.2,29.83,North,-999,-999.0,-999.0,55,-99.99,,,-99.99,,2013-08-14 07:45:00,
2013-08-14 03:50:00,59.4,43.2,29.83,North,-999,-999.0,-999.0,55,-99.99,,,-99.99,,2013-08-14 07:50:00,
2013-08-14 03:56:00,59.4,43.7,29.83,North,-999,-999.0,-999.0,56,-99.99,,,-99.99,,2013-08-14 07:56:00,
2013-08-14 04:01:00,59.4,43.7,29.83,North,-999,-999.0,-999.0,56,-99.99,,,-99.99,,2013-08-14 08:01:00,
2013-08-14 04:06:00,59.2,43.5,29.83,North,-999,-999.0,-999.0,56,-99.99,,,-99.99,,2013-08-14 08:06:00,
2013-08-14 04:11:00,59.2,44.0,29.83,North,-999,-999.0,-999.0,57,-99.99,,,-99.99,,2013-08-14 08:11:00,
2013-08-14 04:16:00,59.2,44.4,29.83,North,-999,-999.0,-999.0,58,-99.99,,,-99.99,,2013-08-14 08:16:00,
2013-08-14 04:22:00,59.0,44.7,29.83,North,-999,-999.0,-999.0,59,-99.99,,,-99.99,,2013-08-14 08:22:00,
2013-08-14 04:27:00,59.0,45.2,29.83,North,-999,-999.0,-999.0,60,-99.99,,,-99.99,,2013-08-14 08:27:00,
2013-08-14 04:32:00,58.8,45.0,29.83,North,-999,-999.0,-999.0,60,-99.99,,,-99.99,,2013-08-14 08:32:00,
2013-08-14 04:39:00,58.8,45.4,29.83,North,-999,-999.0,-999.0,61,-99.99,,,-99.99,,2013-08-14 08:39:00,
2013-08-14 04:44:00,58.6,45.7,29.83,North,-999,-999.0,-999.0,62,-99.99,,,-99.99,,2013-08-14 08:44:00,
2013-08-14 04:49:00,58.6,45.7,29.83,North,-999,-999.0,-999.0,62,-99.99,,,-99.99,,2013-08-14 08:49:00,
2013-08-14 04:54:00,58.5,45.9,29.83,North,-999,-999.0,-999.0,63,-99.99,,,-99.99,,2013-08-14 08:54:00,
2013-08-14 04:59:00,58.5,46.3,29.83,North,-999,-999.0,-999.0,64,-99.99,,,-99.99,,2013-08-14 08:59:00,
2013-08-14 05:05:00,58.3,46.6,29.83,North,-999,-999.0,-999.0,65,-99.99,,,-99.99,,2013-08-14 09:05:00,
2013-08-14 05:10:00,58.1,46.8,29.83,North,-999,-999.0,-999.0,66,-99.99,,,-99.99,,2013-08-14 09:10:00,
2013-08-14 05:15:00,58.1,46.8,29.83,North,-999,-999.0,-999.0,66,-99.99,,,-99.99,,2013-08-14 09:15:00,
2013-08-14 05:20:00,58.1,46.8,29.83,North,-999,-999.0,-999.0,66,-99.99,,,-99.99,,2013-08-14 09:20:00,
2013-08-14 05:25:00,58.1,47.2,29.83,North,-999,-999.0,-999.0,67,-99.99,,,-99.99,,2013-08-14 09:25:00,
2013-08-14 05:31:00,57.9,47.0,29.83,North,-999,-999.0,-999.0,67,-99.99,,,-99.99,,2013-08-14 09:31:00,
2013-08-14 05:36:00,57.9,47.0,29.83,North,-999,-999.0,-999.0,67,-99.99,,,-99.99,,2013-08-14 09:36:00,
2013-08-14 05:41:00,57.9,47.4,29.83,North,-999,-999.0,-999.0,68,-99.99,,,-99.99,,2013-08-14 09:41:00,
2013-08-14 05:46:00,57.9,47.4,29.83,North,-999,-999.0,-999.0,68,-99.99,,,-99.99,,2013-08-14 09:46:00,
2013-08-14 05:51:00,57.9,47.8,29.83,North,-999,-999.0,-999.0,69,-99.99,,,-99.99,,2013-08-14 09:51:00,
2013-08-14 05:57:00,57.9,47.8,29.83,North,-999,-999.0,-999.0,69,-99.99,,,-99.99,,2013-08-14 09:57:00,
2013-08-14 06:02:00,57.7,47.7,29.83,North,-999,-999.0,-999.0,69,-99.99,,,-99.99,,2013-08-14 10:02:00,
2013-08-14 06:08:00,57.9,48.2,29.83,North,-999,-999.0,-999.0,70,-99.99,,,-99.99,,2013-08-14 10:08:00,
2013-08-14 06:13:00,57.9,48.2,29.83,North,-999,-999.0,-999.0,70,-99.99,,,-99.99,,2013-08-14 10:13:00,
2013-08-14 06:19:00,57.9,48.6,29.83,North,-999,-999.0,-999.0,71,-99.99,,,-99.99,,2013-08-14 10:19:00,
2013-08-14 06:24:00,57.9,48.6,29.83,North,-999,-999.0,-999.0,71,-99.99,,,-99.99,,2013-08-14 10:24:00,
2013-08-14 06:29:00,57.9,48.6,29.83,North,-999,-999.0,-999.0,71,-99.99,,,-99.99,,2013-08-14 10:29:00,
2013-08-14 06:34:00,57.9,49.0,29.83,North,-999,-999.0,-999.0,72,-99.99,,,-99.99,,2013-08-14 10:34:00,
2013-08-14 06:39:00,57.9,49.0,29.83,North,-999,-999.0,-999.0,72,-99.99,,,-99.99,,2013-08-14 10:39:00,
2013-08-14 06:45:00,57.9,49.0,29.83,North,-999,-999.0,-999.0,72,-99.99,,,-99.99,,2013-08-14 10:45:00,
2013-08-14 06:50:00,57.9,49.0,29.83,North,-999,-999.0,-999.0,72,-99.99,,,-99.99,,2013-08-14 10:50:00,
2013-08-14 06:55:00,57.9,49.0,29.86,North,-999,-999.0,-999.0,72,-99.99,,,-99.99,,2013-08-14 10:55:00,
2013-08-14 07:01:00,57.9,49.3,29.86,North,-999,-999.0,-999.0,73,-99.99,,,-99.99,,2013-08-14 11:01:00,
2013-08-14 07:07:00,57.9,49.3,29.86,North,-999,-999.0,-999.0,73,-99.99,,,-99.99,,2013-08-14 11:07:00,
2013-08-14 07:13:00,58.1,49.5,29.86,North,-999,-999.0,-999.0,73,-99.99,,,-99.99,,2013-08-14 11:13:00,
2013-08-14 07:18:00,58.1,49.9,29.86,North,-999,-999.0,-999.0,74,-99.99,,,-99.99,,2013-08-14 11:18:00,
2013-08-14 07:23:00,58.1,49.9,29.86,North,-999,-999.0,-999.0,74,-99.99,,,-99.99,,2013-08-14 11:23:00,
2013-08-14 07:28:00,58.1,49.9,29.86,North,-999,-999.0,-999.0,74,-99.99,,,-99.99,,2013-08-14 11:28:00,
2013-08-14 07:33:00,58.1,49.9,29.86,North,-999,-999.0,-999.0,74,-99.99,,,-99.99,,2013-08-14 11:33:00,
2013-08-14 07:39:00,58.3,50.4,29.83,North,-999,-999.0,-999.0,75,-99.99,,,-99.99,,2013-08-14 11:39:00,
2013-08-14 07:44:00,58.5,50.6,29.83,North,-999,-999.0,-999.0,75,-99.99,,,-99.99,,2013-08-14 11:44:00,
2013-08-14 07:49:00,58.6,50.7,29.83,North,-999,-999.0,-999.0,75,-99.99,,,-99.99,,2013-08-14 11:49:00,
2013-08-14 07:54:00,58.6,50.7,29.86,North,-999,-999.0,-999.0,75,-99.99,,,-99.99,,2013-08-14 11:54:00,
2013-08-14 07:59:00,58.8,51.3,29.86,North,-999,-999.0,-999.0,76,-99.99,,,-99.99,,2013-08-14 11:59:00,
2013-08-14 08:05:00,58.8,51.3,29.86,North,-999,-999.0,-999.0,76,-99.99,,,-99.99,,2013-08-14 12:05:00,
2013-08-14 08:10:00,58.8,50.9,29.86,North,-999,-999.0,-999.0,75,-99.99,,,-99.99,,2013-08-14 12:10:00,
2013-08-14 08:15:00,59.0,51.1,29.86,North,-999,-999.0,-999.0,75,-99.99,,,-99.99,,2013-08-14 12:15:00,
2013-08-14 08:21:00,59.4,51.4,29.86,North,-999,-999.0,-999.0,75,-99.99,,,-99.99,,2013-08-14 12:21:00,
2013-08-14 08:26:00,59.5,51.6,29.86,North,-999,-999.0,-999.0,75,-99.99,,,-99.99,,2013-08-14 12:26:00,
2013-08-14 08:31:00,59.7,51.8,29.86,North,-999,-999.0,-999.0,75,-99.99,,,-99.99,,2013-08-14 12:31:00,
2013-08-14 08:36:00,60.1,52.1,29.86,North,-999,-999.0,-999.0,75,-99.99,,,-99.99,,2013-08-14 12:36:00,
2013-08-14 08:42:00,60.3,52.3,29.89,North,-999,-999.0,-999.0,75,-99.99,,,-99.99,,2013-08-14 12:42:00,
2013-08-14 08:48:00,60.8,52.5,29.89,North,-999,-999.0,-999.0,74,-99.99,,,-99.99,,2013-08-14 12:48:00,
2013-08-14 08:53:00,60.6,52.3,29.89,North,-999,-999.0,-999.0,74,-99.99,,,-99.99,,2013-08-14 12:53:00,
2013-08-14 08:59:00,61.0,52.3,29.89,North,-999,-999.0,-999.0,73,-99.99,,,-99.99,,2013-08-14 12:59:00,
2013-08-14 09:04:00,61.0,52.3,29.89,North,-999,-999.0,-999.0,73,-99.99,,,-99.99,,2013-08-14 13:04:00,
2013-08-14 09:10:00,61.0,51.9,29.89,North,-999,-999.0,-999.0,72,-99.99,,,-99.99,,2013-08-14 13:10:00,
2013-08-14 09:15:00,60.8,51.7,29.89,North,-999,-999.0,-999.0,72,-99.99,,,-99.99,,2013-08-14 13:15:00,
2013-08-14 09:21:00,60.8,51.3,29.89,North,-999,-999.0,-999.0,71,-99.99,,,-99.99,,2013-08-14 13:21:00,
2013-08-14 09:26:00,61.2,51.7,29.89,North,-999,-999.0,-999.0,71,-99.99,,,-99.99,,2013-08-14 13:26:00,
2013-08-14 09:31:00,62.1,52.2,29.89,North,-999,-999.0,-999.0,70,-99.99,,,-99.99,,2013-08-14 13:31:00,
2013-08-14 09:36:00,63.3,52.6,29.89,North,-999,-999.0,-999.0,68,-99.99,,,-99.99,,2013-08-14 13:36:00,
2013-08-14 09:41:00,63.5,52.4,29.89,North,-999,-999.0,-999.0,67,-99.99,,,-99.99,,2013-08-14 13:41:00,
2013-08-14 09:47:00,63.0,51.4,29.89,North,-999,-999.0,-999.0,66,-99.99,,,-99.99,,2013-08-14 13:47:00,
2013-08-14 09:52:00,62.6,50.7,29.89,North,-999,-999.0,-999.0,65,-99.99,,,-99.99,,2013-08-14 13:52:00,
2013-08-14 09:57:00,62.2,49.9,29.92,North,-999,-999.0,-999.0,64,-99.99,,,-99.99,,2013-08-14 13:57:00,
2013-08-14 10:02:00,62.2,49.9,29.92,North,-999,-999.0,-999.0,64,-99.99,,,-99.99,,2013-08-14 14:02:00,
2013-08-14 10:07:00,62.2,49.9,29.92,North,-999,-999.0,-999.0,64,-99.99,,,-99.99,,2013-08-14 14:07:00,
2013-08-14 10:13:00,62.2,49.9,29.92,North,-999,-999.0,-999.0,64,-99.99,,,-99.99,,2013-08-14 14:13:00,
2013-08-14 10:18:00,62.6,49.8,29.92,North,-999,-999.0,-999.0,63,-99.99,,,-99.99,,2013-08-14 14:18:00,
2013-08-14 10:23:00,62.6,49.8,29.92,North,-999,-999.0,-999.0,63,-99.99,,,-99.99,,2013-08-14 14:23:00,
2013-08-14 10:28:00,62.6,49.8,29.92,North,-999,-999.0,-999.0,63,-99.99,,,-99.99,,2013-08-14 14:28:00,
2013-08-14 10:34:00,62.4,49.2,29.92,North,-999,-999.0,-999.0,62,-99.99,,,-99.99,,2013-08-14 14:34:00,
2013-08-14 10:39:00,62.4,49.2,29.92,North,-999,-999.0,-999.0,62,-99.99,,,-99.99,,2013-08-14 14:39:00,
2013-08-14 10:45:00,62.6,49.0,29.92,North,-999,-999.0,-999.0,61,-99.99,,,-99.99,,2013-08-14 14:45:00,
2013-08-14 10:50:00,62.2,48.6,29.92,North,-999,-999.0,-999.0,61,-99.99,,,-99.99,,2013-08-14 14:50:00,
2013-08-14 10:56:00,62.2,48.6,29.92,North,-999,-999.0,-999.0,61,-99.99,,,-99.99,,2013-08-14 14:56:00,
2013-08-14 11:01:00,62.2,48.6,29.92,North,-999,-999.0,-999.0,61,-99.99,,,-99.99,,2013-08-14 15:01:00,
2013-08-14 11:06:00,62.8,48.7,29.92,North,-999,-999.0,-999.0,60,-99.99,,,-99.99,,2013-08-14 15:06:00,
2013-08-14 11:11:00,63.0,48.4,29.95,North,-999,-999.0,-999.0,59,-99.99,,,-99.99,,2013-08-14 15:11:00,
2013-08-14 11:16:00,63.0,48.0,29.95,North,-999,-999.0,-999.0,58,-99.99,,,-99.99,,2013-08-14 15:16:00,
2013-08-14 11:22:00,63.0,47.0,29.95,North,-999,-999.0,-999.0,56,-99.99,,,-99.99,,2013-08-14 15:22:00,
2013-08-14 11:27:00,63.0,47.5,29.95,North,-999,-999.0,-999.0,57,-99.99,,,-99.99,,2013-08-14 15:27:00,
2013-08-14 11:33:00,63.1,47.2,29.95,North,-999,-999.0,-999.0,56,-99.99,,,-99.99,,2013-08-14 15:33:00,
2013-08-14 11:38:00,63.3,47.4,29.95,North,-999,-999.0,-999.0,56,-99.99,,,-99.99,,2013-08-14 15:38:00,
2013-08-14 11:44:00,63.1,47.2,29.95,North,-999,-999.0,-999.0,56,-99.99,,,-99.99,,2013-08-14 15:44:00,
2013-08-14 11:49:00,63.3,47.4,29.95,North,-999,-999.0,-999.0,56,-99.99,,,-99.99,,2013-08-14 15:49:00,
2013-08-14 11:54:00,63.3,47.4,29.95,North,-999,-999.0,-999.0,56,-99.99,,,-99.99,,2013-08-14 15:54:00,
2013-08-14 11:59:00,63.1,46.2,29.95,North,-999,-999.0,-999.0,54,-99.99,,,-99.99,,2013-08-14 15:59:00,
2013-08-14 12:04:00,63.5,46.6,29.95,North,-999,-999.0,-999.0,54,-99.99,,,-99.99,,2013-08-14 16:04:00,
2013-08-14 12:10:00,64.2,46.7,29.95,North,-999,-999.0,-999.0,53,-99.99,,,-99.99,,2013-08-14 16:10:00,
2013-08-14 12:15:00,64.8,46.7,29.95,North,-999,-999.0,-999.0,52,-99.99,,,-99.99,,2013-08-14 16:15:00,
2013-08-14 12:22:00,65.1,47.1,29.95,North,-999,-999.0,-999.0,52,-99.99,,,-99.99,,2013-08-14 16:22:00,
2013-08-14 12:27:00,65.5,46.9,29.95,North,-999,-999.0,-999.0,51,-99.99,,,-99.99,,2013-08-14 16:27:00,
2013-08-14 12:32:00,65.7,47.1,29.95,North,-999,-999.0,-999.0,51,-99.99,,,-99.99,,2013-08-14 16:32:00,
2013-08-14 12:38:00,66.0,47.4,29.95,North,-999,-999.0,-999.0,51,-99.99,,,-99.99,,2013-08-14 16:38:00,
2013-08-14 12:43:00,66.4,47.2,29.95,North,-999,-999.0,-999.0,50,-99.99,,,-99.99,,2013-08-14 16:43:00,
2013-08-14 12:48:00,66.6,47.4,29.95,North,-999,-999.0,-999.0,50,-99.99,,,-99.99,,2013-08-14 16:48:00,
2013-08-14 12:54:00,66.6,47.4,29.98,North,-999,-999.0,-999.0,50,-99.99,,,-99.99,,2013-08-14 16:54:00,
2013-08-14 13:00:00,67.3,48.0,29.98,North,-999,-999.0,-999.0,50,-99.99,,,-99.99,,2013-08-14 17:00:00,
2013-08-14 13:05:00,67.6,47.8,29.98,North,-999,-999.0,-999.0,49,-99.99,,,-99.99,,2013-08-14 17:05:00,
2013-08-14 13:10:00,67.6,47.3,29.98,North,-999,-999.0,-999.0,48,-99.99,,,-99.99,,2013-08-14 17:10:00,
2013-08-14 13:15:00,67.5,47.1,29.98,North,-999,-999.0,-999.0,48,-99.99,,,-99.99,,2013-08-14 17:15:00,
2013-08-14 13:21:00,67.8,47.4,29.98,North,-999,-999.0,-999.0,48,-99.99,,,-99.99,,2013-08-14 17:21:00,
2013-08-14 13:26:00,67.5,47.1,29.98,North,-999,-999.0,-999.0,48,-99.99,,,-99.99,,2013-08-14 17:26:00,
2013-08-14 13:31:00,67.6,47.3,29.98,North,-999,-999.0,-999.0,48,-99.99,,,-99.99,,2013-08-14 17:31:00,
2013-08-14 13:36:00,68.0,47.0,29.98,North,-999,-999.0,-999.0,47,-99.99,,,-99.99,,2013-08-14 17:36:00,
2013-08-14 13:41:00,68.4,47.4,29.98,North,-999,-999.0,-999.0,47,-99.99,,,-99.99,,2013-08-14 17:41:00,
2013-08-14 13:47:00,68.2,46.6,29.98,North,-999,-999.0,-999.0,46,-99.99,,,-99.99,,2013-08-14 17:47:00,
2013-08-14 13:52:00,68.5,47.5,29.98,North,-999,-999.0,-999.0,47,-99.99,,,-99.99,,2013-08-14 17:52:00,
2013-08-14 13:57:00,68.5,47.0,29.98,North,-999,-999.0,-999.0,46,-99.99,,,-99.99,,2013-08-14 17:57:00,
2013-08-14 14:02:00,69.1,47.5,29.98,North,-999,-999.0,-999.0,46,-99.99,,,-99.99,,2013-08-14 18:02:00,
2013-08-14 14:08:00,69.4,46.6,29.98,North,-999,-999.0,-999.0,44,-99.99,,,-99.99,,2013-08-14 18:08:00,
2013-08-14 14:13:00,69.4,46.6,29.98,North,-999,-999.0,-999.0,44,-99.99,,,-99.99,,2013-08-14 18:13:00,
2013-08-14 14:20:00,68.7,45.9,29.98,North,-999,-999.0,-999.0,44,-99.99,,,-99.99,,2013-08-14 18:20:00,
2013-08-14 14:25:00,68.7,45.9,29.98,North,-999,-999.0,-999.0,44,-99.99,,,-99.99,,2013-08-14 18:25:00,
2013-08-14 14:30:00,69.3,46.4,29.98,North,-999,-999.0,-999.0,44,-99.99,,,-99.99,,2013-08-14 18:30:00,
2013-08-14 14:35:00,69.6,46.8,29.98,North,-999,-999.0,-999.0,44,-99.99,,,-99.99,,2013-08-14 18:35:00,
2013-08-14 14:40:00,69.3,45.2,29.98,North,-999,-999.0,-999.0,42,-99.99,,,-99.99,,2013-08-14 18:40:00,
2013-08-14 14:46:00,69.1,45.0,29.98,North,-999,-999.0,-999.0,42,-99.99,,,-99.99,,2013-08-14 18:46:00,
2013-08-14 14:51:00,69.3,45.2,29.98,North,-999,-999.0,-999.0,42,-99.99,,,-99.99,,2013-08-14 18:51:00,
2013-08-14 14:56:00,68.5,43.9,29.98,North,-999,-999.0,-999.0,41,-99.99,,,-99.99,,2013-08-14 18:56:00,
2013-08-14 15:01:00,68.4,44.4,29.98,North,-999,-999.0,-999.0,42,-99.99,,,-99.99,,2013-08-14 19:01:00,
2013-08-14 15:06:00,68.9,44.3,29.98,North,-999,-999.0,-999.0,41,-99.99,,,-99.99,,2013-08-14 19:06:00,
2013-08-14 15:12:00,68.9,44.3,29.98,North,-999,-999.0,-999.0,41,-99.99,,,-99.99,,2013-08-14 19:12:00,
2013-08-14 15:18:00,69.1,44.4,29.98,North,-999,-999.0,-999.0,41,-99.99,,,-99.99,,2013-08-14 19:18:00,
2013-08-14 15:23:00,69.1,44.4,29.98,North,-999,-999.0,-999.0,41,-99.99,,,-99.99,,2013-08-14 19:23:00,
2013-08-14 15:28:00,69.3,44.6,29.98,North,-999,-999.0,-999.0,41,-99.99,,,-99.99,,2013-08-14 19:28:00,
2013-08-14 15:33:00,69.4,44.7,29.98,North,-999,-999.0,-999.0,41,-99.99,,,-99.99,,2013-08-14 19:33:00,
2013-08-14 15:38:00,69.6,44.3,29.98,North,-999,-999.0,-999.0,40,-99.99,,,-99.99,,2013-08-14 19:38:00,
2013-08-14 15:45:00,69.1,43.1,29.98,North,-999,-999.0,-999.0,39,-99.99,,,-99.99,,2013-08-14 19:45:00,
2013-08-14 15:50:00,69.1,43.1,29.98,North,-999,-999.0,-999.0,39,-99.99,,,-99.99,,2013-08-14 19:50:00,
2013-08-14 15:55:00,69.3,43.3,29.98,North,-999,-999.0,-999.0,39,-99.99,,,-99.99,,2013-08-14 19:55:00,
2013-08-14 16:01:00,69.4,44.1,29.98,North,-999,-999.0,-999.0,40,-99.99,,,-99.99,,2013-08-14 20:01:00,
2013-08-14 16:06:00,69.4,43.4,29.98,North,-999,-999.0,-999.0,39,-99.99,,,-99.99,,2013-08-14 20:06:00,
2013-08-14 16:11:00,69.6,43.6,29.95,North,-999,-999.0,-999.0,39,-99.99,,,-99.99,,2013-08-14 20:11:00,
2013-08-14 16:17:00,69.1,43.1,29.95,North,-999,-999.0,-999.0,39,-99.99,,,-99.99,,2013-08-14 20:17:00,
2013-08-14 16:23:00,69.3,43.3,29.95,North,-999,-999.0,-999.0,39,-99.99,,,-99.99,,2013-08-14 20:23:00,
2013-08-14 16:28:00,69.3,42.6,29.98,North,-999,-999.0,-999.0,38,-99.99,,,-99.99,,2013-08-14 20:28:00,
2013-08-14 16:34:00,69.1,42.4,29.98,North,-999,-999.0,-999.0,38,-99.99,,,-99.99,,2013-08-14 20:34:00,
2013-08-14 16:40:00,69.4,43.4,29.98,North,-999,-999.0,-999.0,39,-99.99,,,-99.99,,2013-08-14 20:40:00,
2013-08-14 16:45:00,69.4,42.8,29.98,North,-999,-999.0,-999.0,38,-99.99,,,-99.99,,2013-08-14 20:45:00,
2013-08-14 16:50:00,69.1,42.4,29.98,North,-999,-999.0,-999.0,38,-99.99,,,-99.99,,2013-08-14 20:50:00,
2013-08-14 16:56:00,69.4,43.4,29.98,North,-999,-999.0,-999.0,39,-99.99,,,-99.99,,2013-08-14 20:56:00,
2013-08-14 17:01:00,69.6,42.9,29.98,North,-999,-999.0,-999.0,38,-99.99,,,-99.99,,2013-08-14 21:01:00,
2013-08-14 17:06:00,69.6,42.9,29.98,North,-999,-999.0,-999.0,38,-99.99,,,-99.99,,2013-08-14 21:06:00,
2013-08-14 17:11:00,69.8,43.1,29.98,North,-999,-999.0,-999.0,38,-99.99,,,-99.99,,2013-08-14 21:11:00,
2013-08-14 17:16:00,70.0,43.2,29.98,North,-999,-999.0,-999.0,38,-99.99,,,-99.99,,2013-08-14 21:16:00,
2013-08-14 17:22:00,69.6,42.9,29.98,North,-999,-999.0,-999.0,38,-99.99,,,-99.99,,2013-08-14 21:22:00,
2013-08-14 17:27:00,69.6,42.9,29.98,North,-999,-999.0,-999.0,38,-99.99,,,-99.99,,2013-08-14 21:27:00,
2013-08-14 17:32:00,69.6,42.9,29.98,North,-999,-999.0,-999.0,38,-99.99,,,-99.99,,2013-08-14 21:32:00,
2013-08-14 17:37:00,69.4,42.1,29.98,North,-999,-999.0,-999.0,37,-99.99,,,-99.99,,2013-08-14 21:37:00,
2013-08-14 17:43:00,69.4,42.1,29.98,North,-999,-999.0,-999.0,37,-99.99,,,-99.99,,2013-08-14 21:43:00,
2013-08-14 17:48:00,69.6,42.2,29.98,North,-999,-999.0,-999.0,37,-99.99,,,-99.99,,2013-08-14 21:48:00,
2013-08-14 17:54:00,69.6,42.2,29.98,North,-999,-999.0,-999.0,37,-99.99,,,-99.99,,2013-08-14 21:54:00,
2013-08-14 17:59:00,69.6,42.2,29.98,North,-999,-999.0,-999.0,37,-99.99,,,-99.99,,2013-08-14 21:59:00,
2013-08-14 18:05:00,69.6,42.2,29.98,North,-999,-999.0,-999.0,37,-99.99,,,-99.99,,2013-08-14 22:05:00,
2013-08-14 18:10:00,69.6,42.9,30.01,North,-999,-999.0,-999.0,38,-99.99,,,-99.99,,2013-08-14 22:10:00,
2013-08-14 18:15:00,69.6,42.2,30.01,North,-999,-999.0,-999.0,37,-99.99,,,-99.99,,2013-08-14 22:15:00,
2013-08-14 18:20:00,69.4,42.1,30.01,North,-999,-999.0,-999.0,37,-99.99,,,-99.99,,2013-08-14 22:20:00,
2013-08-14 18:25:00,69.3,41.2,30.01,North,-999,-999.0,-999.0,36,-99.99,,,-99.99,,2013-08-14 22:25:00,
2013-08-14 18:33:00,69.1,41.0,30.01,North,-999,-999.0,-999.0,36,-99.99,,,-99.99,,2013-08-14 22:33:00,
2013-08-14 18:38:00,68.9,40.9,30.01,North,-999,-999.0,-999.0,36,-99.99,,,-99.99,,2013-08-14 22:38:00,
2013-08-14 18:44:00,68.9,40.9,30.01,North,-999,-999.0,-999.0,36,-99.99,,,-99.99,,2013-08-14 22:44:00,
2013-08-14 18:49:00,68.7,40.7,30.01,North,-999,-999.0,-999.0,36,-99.99,,,-99.99,,2013-08-14 22:49:00,
2013-08-14 18:55:00,68.7,40.0,30.01,North,-999,-999.0,-999.0,35,-99.99,,,-99.99,,2013-08-14 22:55:00,
2013-08-14 19:01:00,68.5,40.6,30.01,North,-999,-999.0,-999.0,36,-99.99,,,-99.99,,2013-08-14 23:01:00,
2013-08-14 19:06:00,68.5,40.6,30.01,North,-999,-999.0,-999.0,36,-99.99,,,-99.99,,2013-08-14 23:06:00,
2013-08-14 19:11:00,68.4,40.4,30.01,North,-999,-999.0,-999.0,36,-99.99,,,-99.99,,2013-08-14 23:11:00,
2013-08-14 19:16:00,68.2,40.2,30.01,North,-999,-999.0,-999.0,36,-99.99,,,-99.99,,2013-08-14 23:16:00,
2013-08-14 19:22:00,68.0,40.1,30.01,North,-999,-999.0,-999.0,36,-99.99,,,-99.99,,2013-08-14 23:22:00,
2013-08-14 19:27:00,68.0,40.1,30.01,North,-999,-999.0,-999.0,36,-99.99,,,-99.99,,2013-08-14 23:27:00,
2013-08-14 19:32:00,67.8,40.6,30.01,North,-999,-999.0,-999.0,37,-99.99,,,-99.99,,2013-08-14 23:32:00,
2013-08-14 19:38:00,67.6,40.5,30.01,North,-999,-999.0,-999.0,37,-99.99,,,-99.99,,2013-08-14 23:38:00,
2013-08-14 19:43:00,67.5,41.0,30.01,North,-999,-999.0,-999.0,38,-99.99,,,-99.99,,2013-08-14 23:43:00,
2013-08-14 19:48:00,67.3,40.8,30.01,North,-999,-999.0,-999.0,38,-99.99,,,-99.99,,2013-08-14 23:48:00,
2013-08-14 19:54:00,67.1,40.7,30.01,North,-999,-999.0,-999.0,38,-99.99,,,-99.99,,2013-08-14 23:54:00,
2013-08-14 19:59:00,66.9,41.2,30.01,North,-999,-999.0,-999.0,39,-99.99,,,-99.99,,2013-08-14 23:59:00,
2013-08-14 20:04:00,66.7,41.0,30.01,North,-999,-999.0,-999.0,39,-99.99,,,-99.99,,2013-08-15 00:04:00,
2013-08-14 20:09:00,66.6,40.9,30.01,North,-999,-999.0,-999.0,39,-99.99,,,-99.99,,2013-08-15 00:09:00,
2013-08-14 20:15:00,66.4,41.4,30.01,North,-999,-999.0,-999.0,40,-99.99,,,-99.99,,2013-08-15 00:15:00,
2013-08-14 20:20:00,66.2,41.2,30.01,North,-999,-999.0,-999.0,40,-99.99,,,-99.99,,2013-08-15 00:20:00,
2013-08-14 20:26:00,66.0,42.3,30.01,North,-999,-999.0,-999.0,42,-99.99,,,-99.99,,2013-08-15 00:26:00,
2013-08-14 20:31:00,65.8,42.1,30.01,North,-999,-999.0,-999.0,42,-99.99,,,-99.99,,2013-08-15 00:31:00,
2013-08-14 20:37:00,65.7,42.6,30.01,North,-999,-999.0,-999.0,43,-99.99,,,-99.99,,2013-08-15 00:37:00,
2013-08-14 20:43:00,65.5,42.4,30.01,North,-999,-999.0,-999.0,43,-99.99,,,-99.99,,2013-08-15 00:43:00,
2013-08-14 20:48:00,65.3,42.9,30.01,North,-999,-999.0,-999.0,44,-99.99,,,-99.99,,2013-08-15 00:48:00,
2013-08-14 20:54:00,65.1,42.7,30.01,North,-999,-999.0,-999.0,44,-99.99,,,-99.99,,2013-08-15 00:54:00,
2013-08-14 20:59:00,64.9,42.5,30.01,North,-999,-999.0,-999.0,44,-99.99,,,-99.99,,2013-08-15 00:59:00,
2013-08-14 21:04:00,64.8,43.0,30.01,North,-999,-999.0,-999.0,45,-99.99,,,-99.99,,2013-08-15 01:04:00,
2013-08-14 21:09:00,64.4,42.6,30.01,North,-999,-999.0,-999.0,45,-99.99,,,-99.99,,2013-08-15 01:09:00,
2013-08-14 21:14:00,64.4,43.2,30.01,North,-999,-999.0,-999.0,46,-99.99,,,-99.99,,2013-08-15 01:14:00,
2013-08-14 21:20:00,64.2,43.0,30.01,North,-999,-999.0,-999.0,46,-99.99,,,-99.99,,2013-08-15 01:20:00,
2013-08-14 21:25:00,64.0,43.4,30.04,North,-999,-999.0,-999.0,47,-99.99,,,-99.99,,2013-08-15 01:25:00,
2013-08-14 21:30:00,63.9,43.3,30.04,North,-999,-999.0,-999.0,47,-99.99,,,-99.99,,2013-08-15 01:30:00,
2013-08-14 21:35:00,63.7,43.1,30.04,North,-999,-999.0,-999.0,47,-99.99,,,-99.99,,2013-08-15 01:35:00,
2013-08-14 21:40:00,63.5,42.9,30.04,North,-999,-999.0,-999.0,47,-99.99,,,-99.99,,2013-08-15 01:40:00,
2013-08-14 21:46:00,63.5,42.9,30.04,North,-999,-999.0,-999.0,47,-99.99,,,-99.99,,2013-08-15 01:46:00,
2013-08-14 21:51:00,63.3,43.3,30.04,North,-999,-999.0,-999.0,48,-99.99,,,-99.99,,2013-08-15 01:51:00,
2013-08-14 21:56:00,63.1,43.2,30.04,North,-999,-999.0,-999.0,48,-99.99,,,-99.99,,2013-08-15 01:56:00,
2013-08-14 22:01:00,63.1,43.2,30.04,North,-999,-999.0,-999.0,48,-99.99,,,-99.99,,2013-08-15 02:01:00,
2013-08-14 22:07:00,63.0,43.5,30.04,North,-999,-999.0,-999.0,49,-99.99,,,-99.99,,2013-08-15 02:07:00,
2013-08-14 22:12:00,63.0,43.5,30.04,North,-999,-999.0,-999.0,49,-99.99,,,-99.99,,2013-08-15 02:12:00,
2013-08-14 22:18:00,63.0,43.5,30.04,North,-999,-999.0,-999.0,49,-99.99,,,-99.99,,2013-08-15 02:18:00,
2013-08-14 22:23:00,63.0,43.5,30.04,North,-999,-999.0,-999.0,49,-99.99,,,-99.99,,2013-08-15 02:23:00,
2013-08-14 22:28:00,62.8,43.4,30.04,North,-999,-999.0,-999.0,49,-99.99,,,-99.99,,2013-08-15 02:28:00,
2013-08-14 22:34:00,62.8,43.9,30.04,North,-999,-999.0,-999.0,50,-99.99,,,-99.99,,2013-08-15 02:34:00,
2013-08-14 22:39:00,62.6,43.7,30.04,North,-999,-999.0,-999.0,50,-99.99,,,-99.99,,2013-08-15 02:39:00,
2013-08-14 22:44:00,62.6,43.7,30.04,North,-999,-999.0,-999.0,50,-99.99,,,-99.99,,2013-08-15 02:44:00,
2013-08-14 22:49:00,62.4,43.6,30.04,North,-999,-999.0,-999.0,50,-99.99,,,-99.99,,2013-08-15 02:49:00,
2013-08-14 22:54:00,62.4,43.6,30.04,North,-999,-999.0,-999.0,50,-99.99,,,-99.99,,2013-08-15 02:54:00,
2013-08-14 23:00:00,62.2,43.9,30.04,North,-999,-999.0,-999.0,51,-99.99,,,-99.99,,2013-08-15 03:00:00,
2013-08-14 23:05:00,62.2,43.9,30.04,North,-999,-999.0,-999.0,51,-99.99,,,-99.99,,2013-08-15 03:05:00,
2013-08-14 23:10:00,62.1,43.7,30.04,North,-999,-999.0,-999.0,51,-99.99,,,-99.99,,2013-08-15 03:10:00,
2013-08-14 23:15:00,61.9,44.1,30.04,North,-999,-999.0,-999.0,52,-99.99,,,-99.99,,2013-08-15 03:15:00,
2013-08-14 23:20:00,61.7,43.9,30.04,North,-999,-999.0,-999.0,52,-99.99,,,-99.99,,2013-08-15 03:20:00,
2013-08-14 23:26:00,61.5,44.3,30.04,North,-999,-999.0,-999.0,53,-99.99,,,-99.99,,2013-08-15 03:26:00,
2013-08-14 23:31:00,61.3,44.1,30.04,North,-999,-999.0,-999.0,53,-99.99,,,-99.99,,2013-08-15 03:31:00,
2013-08-14 23:36:00,61.2,43.9,30.04,North,-999,-999.0,-999.0,53,-99.99,,,-99.99,,2013-08-15 03:36:00,
2013-08-14 23:41:00,61.0,43.8,30.04,North,-999,-999.0,-999.0,53,-99.99,,,-99.99,,2013-08-15 03:41:00,
2013-08-14 23:46:00,60.8,44.1,30.04,North,-999,-999.0,-999.0,54,-99.99,,,-99.99,,2013-08-15 03:46:00,
2013-08-14 23:52:00,60.6,43.9,30.04,North,-999,-999.0,-999.0,54,-99.99,,,-99.99,,2013-08-15 03:52:00,
2013-08-14 23:57:00,60.6,44.4,30.04,North,-999,-999.0,-999.0,55,-99.99,,,-99.99,,2013-08-15 03:57:00,